Vertical_Velocity
-1 -4 -3 -1 -3 -3 -5 -5 -2 -3 -3 -8 -7 -3 2 1 3 4 1 -4 -3 -2 -1 -0 -0 1 -1 -2 -3 -1 -0 -4 -1 -1 0 -1 -1 1 0 0 -0 1 -2 -2
-2 -1 -3 -6 -6 -2 -3 -4 -0 -7 -2 -6 -1 0 4 -0 -2 -1 -1 -0 -4 -3 -2 -0 2 -0 -3 -0 -0 -2 -0 1 1 -0 2 0 2 2 0 -0 -1 -1 -1 -1
-2 -4 -3 -1 -1 -3 -3 -1 -1 -5 -1 -0 -1 1 4 -1 -2 -5 -2 1 0 -2 -2 -0 1 2 2 -1 -1 -1 -2 -1 -1 -1 1 0 0 2 1 1 0 0 1 -0
-0 -4 -4 -2 -0 -1 1 -0 -0 -5 -4 -2 1 5 3 -1 -5 -2 -6 -3 -0 0 -1 -2 -2 -2 -1 -0 -0 -3 -1 -0 -1 -0 -2 0 -0 -0 0 1 1 2 0 0
-1 -2 -3 -4 -3 -4 -4 -3 -1 1 1 -4 -1 -1 -0 0 6 -3 -2 -3 -4 -2 -2 -2 -2 -3 -2 -0 -0 2 -1 -1 1 2 1 -3 -1 1 -2 1 0 -1 0 3
-5 -5 -3 -4 -7 -5 -0 3 10 -0 -0 3 1 -3 -1 0 1 6 -2 -1 -2 -2 -2 -4 -3 -2 -3 -2 -2 -2 -0 -2 -2 -1 -0 3 1 -2 1 0 -0 -0 -1 2
2 -3 -2 -3 -1 -5 1 -4 -3 -1 -3 1 -5 2 -3 -4 -4 -1 2 0 -0 -2 -4 -4 -2 -2 -2 -3 -2 -3 -4 -2 -0 -3 -2 -1 0 3 -1 0 2 3 3 1
1 -6 -4 -4 -4 -5 -9 -3 -4 -13 -6 5 -5 0 -1 -1 -0 1 2 0 -1 -2 -0 -3 -3 -4 -3 -3 -3 -3 -2 -3 -1 1 -2 -3 -1 -1 2 0 1 1 3 3
-9 3 -1 -4 -2 -8 -8 -8 -2 -8 3 -1 6 1 5 1 -3 -4 5 1 1 -0 -1 0 -1 -3 -3 -1 -3 -3 -4 -4 -4 -2 0 -1 -1 -1 0 1 1 1 -0 1
-3 -1 -1 -1 -1 -4 -6 -6 -7 -2 -10 -9 5 2 -1 -1 -4 -6 -2 0 -2 2 1 -1 -2 -4 -2 -3 -2 -1 -2 -1 -1 -1 -0 -1 -0 -0 -0 -0 -0 1 -1 -2
-7 2 7 -11 -5 -0 0 1 -1 1 2 -12 -12 15 -12 -3 -4 -1 1 2 2 2 6 2 2 -1 -4 -2 -2 -2 -2 -1 -1 -1 3 2 2 1 0 -1 -1 -0 1 1
-1 -6 2 -4 0 -1 -3 -3 -2 -3 4 4 -10 17 3 -2 -7 0 2 -6 -0 1 5 5 6 4 3 -2 -2 -3 -2 -1 2 3 -1 0 5 4 3 2 1 1 2 -0
2 -4 -14 11 -7 -1 -5 -4 1 -1 -7 15 -12 13 -3 -8 -9 -3 -6 -1 -3 -5 0 -0 3 3 2 0 -2 -2 -1 -2 2 2 -1 1 3 7 5 3 0 -1 0 2
-9 3 -2 4 -3 -6 -3 2 -16 -10 -7 -10 14 -7 20 6 -2 3 -1 -3 -4 -10 -6 -5 -5 -4 -2 1 1 -2 -0 -1 3 2 2 4 1 2 2 0 2 2 1 0
-1 6 0 16 -3 0 1 -0 8 -10 3 -23 11 -18 -2 -1 -2 1 1 -2 2 -0 -3 -4 1 1 -1 -0 -1 -1 -0 0 2 1 0 4 1 -2 2 4 4 2 1 1
-4 -9 -8 13 -0 2 4 3 5 5 3 -6 -9 -2 -9 -3 -2 0 -4 -3 1 3 -4 -4 -6 -3 -3 -2 1 -0 1 0 2 2 -2 -1 1 3 2 2 2 2 2 2
-6 -9 -10 -1 -6 -3 -1 2 2 3 6 0 3 2 -4 -3 -0 1 0 -4 -2 -3 4 5 -2 -3 -1 0 0 0 -1 -0 -0 1 1 -1 -1 1 3 2 1 1 1 1
-6 -1 -6 -9 -4 -1 -3 -5 -3 -9 -2 -0 -4 -6 -6 -4 -2 2 0 3 -1 5 1 0 -2 -3 -2 -2 -1 0 2 1 1 0 -0 -1 1 1 1 2 2 0 0 -1
-1 1 -8 -4 -8 -9 23 8 -7 -5 6 8 -1 1 2 2 -2 4 -3 -1 -3 -0 4 3 2 2 -0 -1 -2 -2 1 1 -1 0 1 2 1 1 2 1 1 2 1 0
2 -1 1 4 -13 -17 -0 -2 -2 -4 1 -2 1 3 2 7 1 8 10 7 2 -3 -2 -0 0 -0 1 -0 -1 -2 -0 1 -0 1 0 1 1 0 -0 -0 -1 -0 -0 -0
0 1 1 9 -5 -11 4 -2 -2 -3 -10 -5 -6 -7 -2 -7 -1 -4 -1 3 3 2 3 1 0 0 -1 -1 -1 0 1 0 2 2 2 2 2 0 1 -1 -1 -1 -1 -1
5 1 3 -4 4 -17 4 -4 4 0 -5 -2 -4 -4 -4 5 -1 3 -2 -2 -0 3 -1 0 1 1 0 0 -1 1 1 3 2 2 2 1 1 1 -1 -0 -2 -1 -0 -1
-9 4 -1 4 7 8 -0 -2 -2 1 -2 1 5 5 2 -2 0 2 3 1 -7 -5 2 -0 -1 1 0 2 0 -0 1 1 1 1 2 1 0 1 -1 -1 -2 -2 -0 -0
-1 7 -2 11 8 3 1 1 -0 1 1 2 -0 2 5 0 -2 -0 0 -1 0 5 2 1 0 -1 0 1 -0 0 -0 1 0 0 0 1 0 0 -0 -1 -0 -2 -1 -2
5 4 22 3 5 -2 -0 1 2 2 0 4 1 -0 1 1 -2 0 1 3 -0 -1 2 2 -0 -1 1 1 1 1 1 1 -1 1 1 0 0 -0 -2 -2 -1 -2 -3 -2
9 12 13 -3 3 3 1 -1 0 5 3 3 3 0 1 0 -1 -0 -1 -3 -7 -2 -0 1 -0 -0 0 1 1 1 0 -0 -0 0 -0 1 -0 1 1 -1 -5 2 -1 -2
Height
5832 5828 5823 5817 5813 5808 5803 5798 5794 5788 5785 5781 5777 5773 5769 5765 5762 5758 5754 5750 5746 5742 5737 5733 5729 5725 5721 5717 5714 5712 5711 5710 5709 5708 5708 5707 5706 5706 5706 5707 5708 5708 5709 5710
5830 5825 5820 5815 5810 5806 5801 5795 5792 5786 5781 5778 5774 5770 5768 5763 5759 5755 5751 5746 5743 5738 5734 5730 5725 5721 5718 5714 5711 5707 5705 5704 5702 5700 5698 5697 5696 5695 5695 5696 5697 5696 5696 5698
5827 5823 5817 5813 5808 5803 5798 5793 5788 5785 5779 5774 5772 5768 5764 5759 5755 5751 5747 5743 5739 5735 5731 5726 5722 5718 5714 5710 5706 5703 5698 5695 5694 5692 5690 5688 5687 5685 5685 5685 5684 5685 5684 5685
5824 5819 5815 5810 5805 5800 5794 5789 5784 5780 5777 5771 5767 5765 5759 5756 5752 5746 5742 5739 5736 5732 5727 5723 5718 5714 5709 5705 5700 5697 5693 5689 5685 5682 5681 5679 5678 5676 5674 5674 5674 5674 5673 5675
5822 5816 5811 5807 5802 5796 5792 5783 5779 5775 5772 5769 5763 5760 5755 5751 5747 5743 5739 5735 5731 5727 5723 5718 5713 5709 5703 5698 5695 5690 5686 5683 5678 5674 5671 5669 5667 5666 5665 5664 5663 5663 5663 5664
5818 5813 5808 5803 5797 5792 5786 5780 5775 5768 5766 5765 5759 5754 5749 5744 5741 5738 5733 5730 5726 5721 5717 5713 5708 5704 5699 5694 5688 5683 5680 5675 5671 5667 5663 5660 5657 5656 5655 5654 5653 5653 5652 5652
5814 5810 5804 5799 5793 5787 5781 5775 5770 5765 5759 5758 5753 5748 5744 5739 5736 5734 5730 5725 5720 5715 5710 5705 5701 5696 5691 5686 5681 5676 5671 5667 5663 5660 5656 5652 5649 5647 5645 5645 5644 5644 5644 5644
5809 5804 5797 5792 5787 5781 5775 5770 5763 5756 5753 5751 5749 5745 5740 5734 5729 5724 5722 5718 5713 5708 5702 5698 5693 5687 5682 5677 5672 5667 5662 5658 5654 5649 5646 5644 5641 5637 5635 5633 5632 5631 5631 5631
5802 5799 5792 5786 5779 5774 5770 5763 5757 5753 5748 5743 5741 5739 5734 5726 5720 5714 5713 5709 5704 5700 5695 5689 5684 5679 5673 5668 5662 5657 5653 5648 5644 5639 5635 5633 5630 5628 5625 5623 5621 5620 5619 5618
5797 5792 5787 5781 5773 5768 5764 5757 5750 5746 5740 5736 5733 5733 5727 5721 5714 5708 5706 5703 5698 5693 5688 5681 5675 5670 5664 5658 5652 5647 5642 5637 5632 5628 5624 5620 5618 5616 5614 5611 5610 5609 5607 5605
5790 5786 5781 5773 5766 5760 5757 5750 5744 5740 5735 5730 5725 5726 5719 5712 5706 5702 5700 5695 5690 5685 5680 5674 5667 5660 5653 5648 5643 5637 5632 5627 5623 5618 5614 5609 5606 5604 5602 5600 5598 5597 5596 5595
5783 5778 5771 5767 5758 5751 5748 5742 5736 5731 5728 5722 5718 5719 5712 5705 5698 5695 5691 5685 5680 5675 5669 5662 5656 5649 5643 5638 5632 5626 5620 5615 5611 5606 5602 5598 5595 5592 5590 5588 5587 5585 5583 5582
5775 5770 5763 5760 5752 5744 5740 5735 5728 5723 5720 5717 5710 5711 5703 5696 5689 5687 5682 5676 5670 5664 5658 5652 5646 5639 5633 5627 5620 5614 5608 5603 5598 5593 5589 5586 5583 5581 5578 5576 5574 5573 5571 5570
5768 5764 5757 5751 5744 5736 5734 5727 5720 5715 5712 5707 5705 5698 5698 5687 5680 5676 5670 5664 5657 5651 5646 5639 5632 5627 5622 5615 5607 5600 5595 5589 5585 5580 5576 5573 5570 5568 5565 5563 5562 5560 5559 5558
5759 5756 5749 5744 5736 5729 5725 5721 5711 5705 5702 5694 5697 5687 5685 5676 5670 5664 5658 5651 5645 5638 5631 5626 5621 5615 5608 5600 5592 5586 5580 5575 5571 5567 5563 5560 5557 5554 5552 5551 5549 5547 5546 5545
5751 5746 5741 5736 5730 5721 5719 5711 5705 5698 5690 5684 5681 5679 5671 5665 5659 5652 5646 5638 5632 5625 5617 5611 5604 5597 5589 5583 5577 5570 5565 5560 5557 5553 5550 5547 5544 5541 5539 5537 5535 5534 5533 5531
5740 5734 5729 5725 5720 5712 5712 5704 5698 5691 5682 5677 5670 5665 5658 5652 5646 5639 5632 5625 5619 5610 5604 5596 5588 5580 5573 5567 5561 5555 5550 5545 5542 5538 5535 5533 5530 5528 5526 5524 5522 5520 5518 5516
5728 5723 5716 5712 5707 5704 5698 5693 5687 5680 5673 5665 5659 5652 5646 5640 5634 5627 5620 5612 5605 5599 5590 5581 5572 5564 5557 5550 5545 5540 5535 5531 5527 5523 5520 5517 5515 5514 5511 5509 5507 5506 5504 5502
5717 5710 5702 5696 5693 5693 5692 5682 5675 5668 5664 5655 5647 5640 5634 5628 5621 5614 5604 5597 5590 5581 5573 5564 5556 5548 5541 5535 5529 5524 5519 5515 5511 5507 5504 5502 5500 5498 5496 5494 5492 5490 5488 5486
5707 5700 5694 5685 5679 5676 5675 5669 5662 5655 5652 5646 5638 5629 5620 5613 5607 5600 5592 5583 5573 5564 5556 5548 5540 5532 5524 5517 5511 5506 5502 5498 5494 5492 5489 5486 5484 5483 5481 5479 5477 5475 5472 5470
5693 5687 5682 5674 5664 5667 5661 5656 5648 5642 5638 5628 5621 5612 5605 5599 5593 5585 5576 5568 5558 5549 5541 5532 5524 5515 5507 5500 5493 5489 5485 5482 5479 5477 5474 5472 5470 5467 5466 5463 5461 5459 5457 5454
5681 5673 5670 5662 5654 5649 5647 5640 5633 5627 5619 5613 5606 5598 5592 5585 5577 5568 5558 5549 5541 5532 5525 5517 5509 5501 5492 5485 5480 5475 5472 5469 5466 5463 5460 5458 5456 5453 5451 5448 5446 5444 5442 5439
5667 5662 5654 5649 5643 5635 5629 5623 5617 5610 5603 5597 5590 5584 5576 5569 5560 5551 5541 5533 5525 5517 5509 5502 5494 5485 5478 5472 5468 5463 5459 5456 5453 5450 5447 5445 5442 5440 5437 5435 5432 5429 5426 5423
5653 5649 5640 5633 5629 5621 5614 5608 5601 5594 5587 5580 5573 5567 5559 5550 5541 5534 5526 5517 5509 5501 5494 5487 5479 5471 5465 5459 5455 5451 5446 5443 5440 5437 5435 5432 5429 5426 5423 5420 5416 5412 5409 5404
5640 5634 5626 5618 5612 5605 5600 5592 5585 5577 5570 5564 5557 5550 5542 5533 5524 5516 5508 5500 5494 5487 5480 5472 5465 5458 5452 5447 5443 5438 5434 5431 5429 5426 5423 5420 5416 5412 5408 5405 5401 5396 5392 5388
5623 5616 5607 5599 5594 5587 5583 5576 5569 5563 5557 5549 5542 5534 5525 5516 5509 5500 5493 5487 5481 5473 5466 5459 5452 5445 5441 5436 5432 5428 5424 5421 5417 5414 5410 5407 5403 5399 5396 5391 5386 5382 5377 5372